Location: Unspecified
(54.8312°N, 0.0000°E)
Time: 07:51:44
(UTC+00:00)

ISS - Pass Details

Date: 24 November 2019
Orbit: 411 x 421 km, 51.6° (Epoch: 06 December)

Event Time Altitude Azimuth Distance (km) Brightness Sun altitude
Rises 17:25:22 0° 194° (SSW) 2,348 0.5 -13.7°
Reaches altitude 10° 17:29:01 10° 153° (SSE) 1,494 -1.1 -14.2°
Maximum altitude 17:29:42 11° 141° (SE) 1,467 -1.2 -14.3°
Enters shadow 17:30:01 10° 135° (SE) 1,474 -1.3 -14.4°
